Theta_e
304 305 304 304 304 304 304 304 304 304 305 305 306 306 306 306 306 298 294 295 294 290 291 292 293 290 289 286 282 285 285 286 285 282 285 284 283 285 284 287 285 283 286 284 286 281 281 299 298 291 292 294 296 295
303 303 303 303 303 303 304 304 304 304 304 304 305 305 306 306 306 303 293 295 296 290 289 294 294 295 294 292 289 286 287 285 288 287 289 288 286 288 285 280 290 283 289 285 289 287 295 298 299 298 298 296 295 295
302 302 302 302 303 303 304 304 304 304 304 304 304 305 305 306 306 303 297 293 292 292 290 287 288 295 295 296 297 286 286 289 287 290 286 286 286 285 280 285 287 292 294 290 290 294 296 298 300 300 299 297 298 296
301 302 302 303 304 304 305 305 304 304 304 304 305 306 306 306 305 304 296 294 292 292 285 285 294 292 297 294 294 296 294 296 293 291 286 286 284 290 284 290 289 293 293 292 291 296 299 300 301 301 300 300 297 296
302 302 303 304 305 305 306 305 305 304 304 305 305 305 305 304 305 300 295 294 298 292 285 286 290 292 292 294 294 294 293 291 290 288 284 283 286 285 288 289 288 295 292 289 289 296 297 297 300 302 298 297 297 295
302 303 304 303 304 305 305 305 304 304 305 305 305 305 304 304 304 293 289 296 299 296 288 280 286 289 293 299 295 293 294 290 288 286 284 286 289 286 281 280 291 297 298 298 294 299 301 302 301 300 298 297 296 295
302 303 303 303 303 303 305 305 304 305 304 304 303 304 304 304 295 288 286 292 299 297 289 283 282 293 297 295 294 293 295 292 290 289 284 285 286 290 284 281 292 296 300 301 302 301 298 300 297 299 299 298 300 298
303 302 303 303 303 304 303 304 304 304 304 304 305 304 304 304 300 294 294 300 299 293 291 283 281 287 296 290 287 292 292 292 291 289 287 286 289 287 283 291 294 298 299 301 301 302 300 299 299 298 298 298 298 297
302 301 301 303 303 304 303 303 303 303 304 304 305 305 297 293 288 292 303 301 296 291 286 284 281 280 296 289 290 290 290 285 292 287 287 290 286 284 289 293 296 297 298 297 299 299 298 297 297 298 298 297 295 295
302 301 301 301 301 302 303 303 303 303 304 305 297 292 287 292 303 301 295 289 291 292 291 284 287 285 291 290 288 288 291 285 281 288 292 286 286 295 295 296 298 299 298 298 294 294 296 296 296 296 296 297 296 294
301 301 301 301 301 302 302 302 302 303 302 293 288 285 293 301 294 291 287 286 287 285 288 286 287 286 292 286 286 290 287 286 283 286 287 285 286 292 297 296 300 299 299 299 298 297 297 297 297 297 297 297 296 294
301 301 301 301 302 301 301 302 302 295 291 292 293 296 293 290 288 284 281 284 283 280 287 287 286 288 289 291 289 291 287 285 282 292 285 282 289 296 298 298 299 298 300 300 301 300 300 300 299 298 297 295 294 295
301 301 302 302 303 303 302 302 302 302 300 295 294 292 286 288 283 279 279 282 282 287 289 289 285 287 287 292 291 289 284 283 293 281 282 286 292 296 298 299 298 300 300 300 300 300 300 300 300 298 297 298 296 294
302 302 302 302 303 302 303 302 302 300 294 288 288 279 284 284 285 286 286 286 289 290 290 290 285 287 288 288 289 284 289 290 281 282 283 289 293 297 296 299 298 297 298 298 299 300 300 301 300 301 300 301 299 295
301 301 302 302 302 302 302 302 303 295 291 288 288 278 281 287 289 290 291 288 289 291 290 288 287 289 288 289 289 287 285 283 284 284 289 294 295 296 294 295 296 296 297 298 299 299 300 301 300 300 300 300 301 298
301 301 298 301 302 302 302 300 297 295 292 289 287 284 286 287 287 289 288 287 290 291 291 291 288 288 288 288 284 284 282 282 286 290 293 294 294 294 294 297 298 298 298 299 299 300 301 301 300 299 301 301 301 299
301 294 301 302 302 301 301 294 294 292 290 288 285 288 286 286 287 288 289 289 292 290 287 290 286 284 289 284 284 285 284 289 293 294 295 295 296 296 299 300 300 301 299 298 299 299 300 302 301 301 299 300 300 299
292 294 300 301 300 297 295 294 292 290 287 287 284 286 287 290 288 289 291 292 292 290 290 288 291 286 283 282 284 287 293 294 296 295 296 299 299 300 300 299 300 300 300 300 300 301 301 300 300 298 299 300 299 298
295 297 300 301 299 293 291 292 290 284 287 287 287 287 291 292 291 292 292 295 294 295 292 288 287 284 285 287 289 292 295 296 296 297 298 298 298 299 300 300 300 298 298 299 298 297 298 300 300 299 299 299 297 295
301 301 301 302 299 291 290 288 292 287 285 286 286 288 290 291 291 291 294 295 294 292 288 286 286 286 287 293 295 295 297 297 296 296 296 299 301 302 301 301 301 299 298 299 299 297 299 300 300 301 299 297 296 293
297 298 300 297 294 293 289 287 287 288 288 286 288 288 290 292 290 290 291 294 292 289 288 292 294 297 299 300 299 298 297 296 296 297 298 298 301 300 302 303 304 302 300 300 301 301 301 302 301 302 299 297 297 294
295 301 294 297 292 292 288 290 287 288 286 287 288 289 289 288 288 289 291 291 291 292 294 294 294 296 298 297 297 298 298 299 300 300 298 299 299 300 300 301 303 302 302 303 303 302 301 302 300 301 301 299 296 293
298 297 292 293 285 283 282 290 286 287 285 286 289 288 289 288 289 292 287 290 293 295 297 296 297 298 298 299 301 300 300 299 299 300 300 300 302 303 303 302 302 301 301 302 304 303 303 297 301 303 301 302 300 292
298 291 288 287 287 282 292 288 289 288 288 287 288 288 289 289 291 288 286 288 292 295 296 295 297 298 299 300 299 299 299 301 298 299 300 299 299 301 303 302 303 303 303 305 305 305 303 302 300 304 304 304 301 294
282 282 283 275 288 287 287 287 287 286 287 289 289 288 289 291 287 285 286 288 291 290 294 294 295 295 295 297 299 300 300 299 298 297 299 299 298 298 299 299 299 300 302 302 302 303 302 303 302 303 303 303 301 297
274 286 280 287 286 284 283 283 285 285 285 284 285 288 289 283 283 283 288 290 289 290 291 291 292 293 294 296 296 298 300 301 299 298 300 301 300 297 296 295 294 295 299 302 303 302 302 302 303 302 300 298 290 295
280 288 290 291 288 286 281 286 288 285 286 284 284 284 281 280 283 288 293 292 291 292 293 294 294 293 293 294 297 298 300 299 298 299 301 298 297 297 296 293 292 293 296 299 299 302 301 301 302 304 303 301 299 296
288 289 283 287 284 284 283 285 286 284 285 287 288 282 281 278 280 289 291 294 294 295 295 296 296 296 296 300 298 298 297 298 299 298 297 296 295 295 295 295 294 287 293 294 294 296 297 301 300 303 302 300 298 296
287 289 289 285 284 284 285 285 285 287 289 287 283 282 280 288 292 293 295 294 294 295 294 294 295 296 296 298 299 297 296 296 294 291 290 289 290 291 292 292 292 293 294 294 290 289 292 295 300 301 301 299 296 298
286 289 285 287 280 281 285 289 288 289 290 289 291 290 289 290 293 294 293 293 292 292 294 295 295 295 293 293 294 295 295 294 293 290 287 286 286 288 290 291 291 292 292 293 293 294 290 296 296 302 299 298 298 297
288 289 285 285 284 287 290 291 291 291 290 289 291 286 285 290 293 295 293 293 292 293 292 292 293 294 295 296 295 292 290 291 291 290 288 287 288 288 289 290 291 292 292 293 293 294 295 299 299 298 299 297 296 296
285 285 284 281 282 289 291 288 288 285 287 287 285 290 290 289 286 291 293 294 295 295 292 293 295 295 297 298 297 294 289 290 289 289 290 289 288 288 288 290 291 292 292 291 292 292 292 293 294 294 294 294 296 295
289 290 289 288 286 288 289 288 288 287 288 286 288 290 289 287 283 290 296 296 295 295 294 295 295 294 295 293 292 292 289 290 287 283 285 283 281 283 287 289 290 291 290 289 290 290 289 289 291 291 293 295 295 293
Wind_Speed
7 8 10 11 12 13 13 14 14 14 15 15 16 15 13 12 10 3 5 3 2 4 8 13 13 9 7 3 3 5 8 4 4 2 3 3 3 5 5 5 5 5 4 4 3 6 14 4 2 11 8 5 8 7
8 9 10 11 12 13 14 15 15 14 15 15 16 17 14 13 11 4 4 2 2 3 8 14 20 15 15 21 8 4 5 3 4 2 3 4 4 3 2 3 2 4 4 4 9 7 5 5 6 7 10 16 6 10
9 10 11 12 13 14 15 15 15 15 15 15 16 16 16 15 13 5 4 3 1 4 7 3 8 11 9 11 10 5 3 6 4 5 3 3 5 2 3 2 3 4 3 2 2 3 2 7 9 9 15 13 10 11
9 11 12 14 14 15 15 15 14 14 14 15 17 15 14 14 9 8 3 3 1 3 5 9 5 14 12 9 12 8 8 4 4 3 3 3 3 2 4 2 2 3 6 2 3 5 5 9 9 6 11 11 13 9
10 12 13 14 14 13 14 13 12 12 14 15 14 13 11 10 9 5 3 2 3 3 4 8 11 11 8 5 12 9 6 4 2 3 2 4 3 2 3 2 4 6 5 4 3 2 2 8 10 8 8 10 9 12
10 11 12 13 14 15 16 10 10 12 13 14 14 13 12 11 9 3 3 2 2 1 3 6 5 7 10 5 5 6 5 3 3 5 4 4 6 4 3 3 5 4 4 7 4 2 4 4 6 9 9 7 8 9
9 10 12 13 14 15 14 11 12 12 13 13 14 13 12 10 1 2 5 4 3 2 3 5 5 4 5 8 3 3 1 3 4 3 3 3 3 4 2 3 3 7 2 2 9 14 9 9 6 8 8 6 7 9
9 10 12 13 14 14 15 14 14 15 15 16 15 15 13 12 9 5 5 10 3 2 2 3 6 5 3 4 4 3 1 1 1 3 2 3 1 1 4 6 8 5 3 4 6 10 4 10 9 6 5 9 13 10
8 10 12 12 15 14 14 15 16 17 18 19 18 15 3 1 2 4 3 2 1 3 2 2 3 4 4 3 2 2 1 1 1 3 3 3 2 4 7 1 9 12 10 8 7 8 13 12 11 11 12 10 11 7
9 10 12 14 15 14 14 15 17 19 21 16 4 2 3 3 8 2 2 1 1 2 2 3 3 4 2 2 2 2 2 2 1 4 2 3 1 5 4 7 2 4 6 8 9 13 14 11 12 11 11 8 9 8
9 9 11 13 16 16 14 15 18 20 7 5 4 2 4 10 2 1 2 2 1 3 3 4 4 5 3 2 2 2 1 0 2 2 1 2 2 3 4 4 3 6 13 11 12 8 10 10 11 10 9 8 7 8
9 10 11 13 15 15 16 15 15 5 2 4 4 6 3 4 3 2 3 2 2 3 4 3 5 4 5 2 2 2 2 2 1 3 3 3 2 6 6 2 3 1 14 13 14 14 12 12 11 9 7 7 7 7
10 11 12 13 14 15 16 15 15 14 10 2 1 2 4 1 4 3 5 3 4 4 3 4 7 3 5 2 2 3 3 1 3 4 2 2 5 5 5 2 5 5 12 11 10 10 11 10 9 7 5 4 7 7
11 12 13 15 15 15 16 16 14 8 2 2 3 5 2 4 3 3 4 4 5 5 6 5 3 2 3 3 2 3 3 2 2 3 3 3 4 4 3 3 7 10 8 8 8 8 9 8 7 6 6 6 8 7
13 14 14 13 13 18 18 17 14 0 1 2 3 2 3 5 5 7 7 4 6 4 2 3 3 2 3 3 2 3 2 5 5 3 1 2 4 5 3 6 7 7 6 6 5 5 5 6 6 6 5 5 5 8
16 13 2 11 15 19 19 10 2 2 2 2 2 3 3 2 5 4 3 4 4 2 0 1 3 4 3 4 4 6 3 4 1 3 3 5 3 4 4 5 5 5 6 5 4 5 4 6 5 4 5 5 5 7
12 1 10 14 19 22 7 1 2 2 3 3 4 4 4 2 3 4 3 4 3 3 3 2 4 4 4 4 5 4 3 3 4 4 2 2 3 2 3 3 4 5 4 4 3 4 3 2 6 3 3 3 6 6
2 5 17 17 14 7 3 2 2 2 3 3 3 6 3 1 2 4 5 5 4 5 4 4 3 5 4 4 4 3 3 4 4 4 4 3 6 6 2 3 4 4 2 1 2 1 2 3 1 3 2 6 4 1
8 10 18 17 5 2 3 3 3 1 4 3 4 4 1 2 3 4 5 8 3 3 3 3 5 4 4 2 2 4 5 6 3 3 4 6 5 7 9 5 3 1 3 1 1 2 1 3 3 2 3 5 3 2
13 12 13 8 4 1 4 4 2 0 3 4 3 4 2 3 3 3 7 7 5 3 4 5 3 2 3 4 3 5 1 2 1 7 7 9 9 9 8 6 5 5 4 6 6 5 4 4 3 2 5 5 4 3
7 4 8 2 1 2 2 2 4 2 4 3 4 3 2 2 4 5 5 4 5 3 4 4 6 6 9 7 5 4 5 1 2 2 3 6 5 4 7 8 9 7 6 5 5 5 9 5 4 1 5 4 4 5
4 8 3 2 1 3 2 3 3 3 1 4 4 2 3 2 3 3 2 5 3 3 4 6 8 9 9 7 5 2 3 6 6 4 5 3 0 4 5 4 6 5 5 4 5 6 5 6 5 5 5 5 5 4
7 2 2 1 4 4 7 2 2 3 2 4 4 2 1 3 1 2 4 3 3 5 5 6 9 7 8 8 11 12 9 6 6 3 2 1 1 4 4 3 3 3 4 4 2 2 2 4 4 3 3 5 5 4
1 1 2 2 3 4 2 2 2 2 3 4 3 5 3 4 3 4 3 3 3 4 5 10 8 10 11 14 9 9 8 4 3 2 2 4 5 5 5 4 5 4 3 4 4 3 2 2 2 3 3 3 6 4
3 6 3 4 3 2 3 4 2 3 2 3 0 3 3 3 3 3 3 3 4 5 5 8 8 5 4 7 9 9 6 4 4 5 5 4 3 4 6 6 6 7 7 5 5 4 4 4 3 2 4 3 4 8
1 3 4 2 2 3 3 3 4 3 2 2 2 2 1 1 4 3 2 2 1 2 3 3 4 5 5 4 4 6 8 8 5 7 10 10 10 7 7 8 9 9 11 9 6 7 7 6 5 1 3 1 6 10
2 3 3 2 2 2 4 3 3 1 3 4 3 4 3 4 3 2 1 1 1 3 3 4 3 3 4 5 4 5 6 5 5 4 7 8 7 7 6 6 6 7 9 9 10 7 8 8 10 5 5 4 3 6
2 4 2 1 1 1 1 3 3 3 2 3 3 3 2 5 3 3 3 3 3 4 4 4 3 1 4 6 4 4 4 4 4 5 2 4 4 5 7 6 6 7 7 6 8 8 8 7 4 2 3 2 2 3
2 3 3 1 2 2 1 1 1 1 0 2 2 1 2 3 2 1 3 1 1 3 4 4 5 4 5 5 5 4 4 4 8 10 10 8 10 9 10 9 8 9 7 9 11 8 10 7 4 2 2 3 1 4
3 2 2 1 2 1 3 1 1 2 0 2 2 2 3 3 1 0 3 4 4 2 3 1 1 4 3 3 4 6 6 6 6 5 4 5 5 6 7 8 8 8 8 9 9 11 9 7 2 2 2 2 1 2
2 2 2 2 2 2 3 3 2 1 1 0 1 3 3 2 2 2 1 1 2 3 3 3 4 2 3 4 3 3 3 4 5 6 4 2 3 5 5 6 7 7 8 10 9 10 12 4 4 5 6 1 1 2
1 1 1 2 4 3 1 1 1 1 2 0 2 1 1 2 1 3 2 2 3 2 3 3 4 5 5 3 4 4 6 4 3 2 3 3 4 5 5 5 7 7 9 9 9 10 12 10 6 7 7 3 3 4
1 2 2 2 3 2 3 1 1 2 2 1 2 3 3 4 4 4 3 2 3 2 4 4 4 3 6 7 5 3 4 4 3 1 5 4 4 5 4 5 7 8 10 9 9 10 12 13 8 10 10 9 5 5
Wind_Direction
1 356 353 349 343 338 335 333 330 328 327 327 329 324 313 309 316 359 264 268 236 269 285 260 287 289 298 271 259 309 344 322 345 301 215 257 252 243 225 201 210 210 210 211 162 218 250 220 158 165 187 122 128 108
8 2 353 346 340 338 333 329 325 322 322 323 321 323 310 307 295 324 278 289 313 232 256 290 278 264 241 246 250 212 229 259 267 328 20 334 329 294 260 276 331 267 214 218 181 217 248 279 245 135 138 129 137 116
6 353 345 340 334 329 327 324 323 322 319 321 319 316 317 312 300 287 268 253 338 267 283 269 259 278 274 222 210 195 259 211 231 190 190 235 263 316 293 317 312 343 10 225 318 289 98 48 50 106 120 125 123 114
358 348 343 336 331 324 318 314 317 321 322 321 316 309 307 314 314 319 258 223 175 268 275 284 326 297 285 253 224 199 213 145 174 138 189 220 250 168 281 274 312 225 310 289 303 4 35 41 42 327 96 93 96 95
354 349 342 338 333 330 328 330 326 324 325 327 332 342 339 335 327 311 241 240 206 244 291 287 309 276 282 297 259 206 159 146 170 108 188 221 220 253 257 295 248 177 194 192 207 171 210 138 161 203 99 99 111 109
354 351 354 355 351 343 334 327 329 328 327 331 331 331 330 331 345 3 327 280 228 75 312 297 287 294 299 333 345 155 189 147 155 155 213 229 234 133 255 241 266 299 191 150 160 65 359 15 66 109 109 96 103 114
352 349 350 353 352 350 351 344 337 333 331 326 323 317 312 305 106 174 214 227 187 9 279 287 298 279 350 320 327 339 66 162 140 194 227 215 237 161 229 231 261 318 313 185 139 168 158 198 157 126 104 99 93 75
351 355 351 348 345 344 350 351 345 335 325 315 304 299 294 298 292 260 250 260 151 187 244 287 274 308 29 306 319 351 6 50 185 200 279 211 70 75 256 235 199 178 136 207 182 203 162 114 114 105 89 75 88 84
355 353 350 350 353 355 349 343 337 329 316 307 304 305 1 101 273 243 201 71 118 143 277 266 280 302 326 282 288 291 262 212 226 209 240 117 154 226 248 265 120 151 192 201 150 99 106 91 86 84 89 88 102 103
5 1 355 358 353 347 344 342 340 331 317 315 29 358 317 232 254 5 19 43 150 235 230 258 261 270 353 305 281 281 251 231 213 245 113 191 235 296 327 29 84 107 108 87 82 93 93 88 94 91 95 103 96 100
351 352 354 354 354 350 342 342 339 333 358 9 2 287 270 291 31 22 320 283 261 256 224 250 240 290 287 229 271 265 305 14 276 301 346 333 34 294 340 99 331 114 81 80 95 96 92 105 105 99 95 105 112 101
337 331 332 331 331 332 331 328 333 0 278 247 280 288 295 351 342 327 284 311 283 287 299 300 283 259 281 232 252 283 312 31 38 318 50 11 335 345 350 319 295 36 99 103 104 105 107 105 110 119 133 138 106 104
334 326 321 319 320 318 313 320 323 320 315 12 176 315 22 337 342 349 327 333 305 304 273 318 321 287 325 308 300 318 359 327 327 39 54 360 304 299 269 151 106 88 103 103 102 108 116 120 125 129 136 110 106 107
331 323 316 312 311 311 316 315 318 334 335 3 357 6 42 339 328 293 272 268 254 251 279 298 280 299 304 313 350 303 351 304 56 64 38 337 318 292 50 96 113 110 115 117 124 128 133 137 148 160 148 137 140 145
325 315 307 301 315 318 319 316 313 89 31 329 53 306 252 236 244 251 249 266 257 241 227 308 293 225 283 298 13 309 359 33 23 50 340 248 257 242 168 112 119 125 133 143 145 136 153 159 157 177 180 156 144 144
326 319 319 310 319 320 320 318 342 148 272 268 126 288 252 251 281 298 285 275 272 270 329 218 304 325 5 337 4 14 37 34 337 262 271 326 342 85 98 108 127 136 133 148 158 151 178 161 190 186 181 173 163 166
334 330 318 331 335 321 310 24 332 264 242 292 292 245 240 253 262 290 286 280 301 4 329 7 7 10 306 17 18 13 39 297 317 307 346 7 35 94 103 164 147 131 156 155 156 158 185 116 112 132 214 196 209 207
272 309 323 325 341 326 303 175 283 312 299 308 336 283 323 292 327 327 329 330 4 341 0 16 1 34 37 10 354 319 325 293 281 263 303 6 62 12 333 132 125 136 143 77 79 55 29 134 135 252 106 170 196 47
273 291 295 303 320 307 316 298 91 328 268 267 278 319 83 301 341 16 4 12 15 24 49 14 35 14 342 299 315 10 27 10 348 312 330 356 18 18 5 34 21 103 141 193 314 303 358 82 233 245 160 144 116 80
305 284 281 295 152 335 310 307 69 202 292 276 347 357 8 323 349 17 44 12 359 18 29 16 79 235 279 273 251 253 201 234 279 39 9 25 20 27 15 0 8 341 10 18 5 358 360 346 338 182 129 128 121 112
320 295 320 73 158 196 240 303 319 244 295 331 290 354 321 350 19 16 38 343 13 24 354 346 351 332 313 273 252 265 290 40 22 47 17 30 352 355 20 16 19 43 51 32 22 335 25 351 318 32 114 122 111 98
267 345 356 305 317 336 343 258 196 265 318 259 319 343 56 357 344 20 36 20 32 356 338 336 330 333 335 330 337 276 257 86 74 101 87 168 126 33 30 21 28 13 45 26 16 2 347 328 357 84 82 78 51 96
302 345 281 305 38 33 262 350 358 292 322 289 337 25 19 355 341 78 64 349 1 12 319 329 333 343 1 347 17 22 31 82 100 108 184 264 21 71 63 40 15 13 342 281 206 241 18 317 36 61 138 110 105 125
291 301 290 256 168 250 260 297 283 291 299 356 43 331 19 7 353 63 72 355 323 306 347 4 358 359 6 13 11 5 0 26 78 41 17 38 30 9 15 2 1 356 330 328 14 16 353 281 352 83 130 114 103 136
25 291 106 296 267 306 331 344 313 8 334 335 73 36 351 357 34 72 74 324 343 339 353 342 343 353 359 357 358 352 355 31 23 46 10 49 45 27 22 21 19 15 352 5 3 18 339 299 347 305 159 179 156 133
51 256 149 326 27 47 342 331 354 332 292 10 2 310 45 78 61 44 42 345 234 282 299 309 316 341 342 347 348 1 12 12 34 59 54 44 39 37 24 22 7 355 347 356 352 7 358 350 335 235 129 153 123 131
347 314 302 21 99 76 360 285 272 35 37 20 336 4 44 53 45 322 280 319 242 265 281 290 289 305 311 328 329 1 19 27 42 36 65 61 55 43 35 20 357 325 325 347 359 346 345 351 360 80 79 42 105 138
286 22 18 237 1 142 190 286 4 48 12 335 7 37 105 173 211 250 226 255 249 289 304 312 326 22 15 12 9 12 16 6 15 40 133 81 43 38 17 0 340 326 335 346 343 346 349 340 3 63 73 92 64 107
334 342 330 113 27 341 285 64 40 327 288 70 74 310 249 221 227 255 300 308 3 33 5 357 348 6 22 9 10 2 10 26 38 34 23 2 351 358 360 349 347 345 341 338 330 334 328 329 321 75 80 75 61 109
294 312 346 313 117 265 253 137 242 271 137 191 174 8 359 343 281 353 31 21 13 343 336 43 29 35 359 22 351 7 32 52 51 62 36 358 325 322 333 339 342 341 336 332 329 326 332 337 112 36 71 75 46 40
327 306 352 324 286 254 224 243 294 336 346 184 259 142 215 224 321 318 356 290 351 25 30 348 335 309 326 334 2 28 51 22 67 70 69 13 346 334 334 335 339 340 335 344 355 0 354 61 40 28 18 139 229 344
341 186 195 295 284 277 19 169 232 190 302 94 286 219 33 70 278 284 269 48 357 359 322 335 329 304 300 348 66 93 123 131 96 60 26 17 2 346 343 343 344 346 2 9 6 11 8 7 19 18 348 302 110 76
236 255 219 242 292 248 235 123 251 247 221 232 252 194 187 149 205 254 285 191 195 253 299 303 303 354 73 80 62 104 128 141 138 182 314 11 53 27 22 14 12 10 16 8 7 13 13 2 17 19 15 17 35 38